QPF
0.00 0.00 0.01 0.00 0.01 0.01 0.01 0.01 0.01 0.01 0.00 0.00 0.00 0.01 0.00 0.00 0.00 0.00 0.00 0.01 0.02 0.03 0.03 0.02 0.02 0.02 0.01 0.01 0.02 0.03 0.05 0.04 0.05 0.06 0.07 0.10 0.08 0.08 0.06 0.06 0.04 0.05 0.06 0.05
0.00 0.00 0.01 0.00 0.00 0.00 0.00 0.00 0.00 0.00 0.00 0.00 0.00 0.01 0.00 0.00 0.00 0.00 0.00 0.01 0.02 0.02 0.03 0.03 0.02 0.01 0.01 0.01 0.01 0.01 0.02 0.03 0.03 0.05 0.07 0.10 0.09 0.08 0.06 0.07 0.06 0.03 0.04 0.05
0.00 0.00 0.00 0.00 0.00 0.00 0.00 0.00 0.01 0.01 0.00 0.00 0.01 0.03 0.03 0.01 0.01 0.00 0.00 0.01 0.01 0.01 0.02 0.02 0.03 0.01 0.01 0.01 0.00 0.00 0.01 0.01 0.02 0.05 0.06 0.08 0.09 0.09 0.08 0.07 0.06 0.04 0.02 0.04
0.00 0.00 0.00 0.00 0.00 0.00 0.00 0.00 0.00 0.01 0.01 0.01 0.01 0.05 0.06 0.03 0.01 0.00 0.00 0.00 0.01 0.01 0.01 0.01 0.01 0.01 0.01 0.01 0.00 0.00 0.01 0.01 0.02 0.04 0.06 0.08 0.10 0.11 0.10 0.07 0.04 0.04 0.03 0.03
0.00 0.00 0.00 0.00 0.00 0.00 0.00 0.00 0.00 0.00 0.01 0.02 0.01 0.04 0.06 0.05 0.01 0.00 0.00 0.00 0.01 0.01 0.01 0.01 0.01 0.01 0.01 0.01 0.01 0.01 0.01 0.01 0.02 0.03 0.04 0.07 0.07 0.08 0.07 0.06 0.05 0.04 0.03 0.02
0.00 0.00 0.00 0.00 0.00 0.00 0.00 0.00 0.00 0.00 0.01 0.02 0.02 0.02 0.04 0.02 0.01 0.00 0.01 0.01 0.01 0.01 0.01 0.01 0.01 0.01 0.01 0.01 0.01 0.00 0.01 0.02 0.02 0.02 0.03 0.04 0.05 0.06 0.07 0.08 0.08 0.06 0.05 0.03
0.00 0.00 0.00 0.00 0.00 0.00 0.00 0.01 0.01 0.02 0.02 0.02 0.02 0.02 0.01 0.01 0.01 0.00 0.00 0.01 0.02 0.01 0.01 0.01 0.01 0.01 0.01 0.01 0.01 0.01 0.02 0.02 0.02 0.02 0.03 0.03 0.03 0.05 0.06 0.06 0.06 0.05 0.04 0.04
0.00 0.00 0.01 0.00 0.00 0.01 0.01 0.01 0.01 0.02 0.03 0.03 0.02 0.02 0.01 0.00 0.00 0.00 0.01 0.01 0.01 0.01 0.01 0.01 0.01 0.01 0.01 0.01 0.01 0.01 0.02 0.02 0.02 0.02 0.02 0.02 0.03 0.03 0.03 0.05 0.05 0.05 0.04 0.04
0.00 0.00 0.00 0.00 0.00 0.00 0.02 0.01 0.01 0.01 0.03 0.03 0.03 0.03 0.01 0.01 0.00 0.00 0.00 0.00 0.01 0.02 0.01 0.01 0.01 0.01 0.01 0.01 0.01 0.02 0.02 0.02 0.02 0.02 0.03 0.02 0.01 0.01 0.02 0.04 0.04 0.04 0.04 0.05
0.00 0.00 0.00 0.00 0.00 0.00 0.00 0.00 0.01 0.02 0.04 0.05 0.04 0.03 0.02 0.02 0.00 0.00 0.00 0.00 0.00 0.01 0.00 0.00 0.01 0.01 0.01 0.01 0.01 0.02 0.02 0.02 0.01 0.01 0.01 0.01 0.00 0.01 0.02 0.02 0.03 0.03 0.04 0.05
0.00 0.00 0.00 0.00 0.00 0.01 0.00 0.00 0.00 0.01 0.02 0.04 0.04 0.03 0.03 0.03 0.01 0.01 0.00 0.00 0.00 0.01 0.01 0.02 0.01 0.01 0.01 0.01 0.01 0.01 0.01 0.01 0.01 0.01 0.01 0.00 0.00 0.01 0.02 0.03 0.02 0.03 0.04 0.05
0.00 0.00 0.00 0.00 0.01 0.01 0.00 0.00 0.00 0.00 0.00 0.01 0.04 0.04 0.02 0.01 0.01 0.01 0.01 0.00 0.00 0.01 0.01 0.01 0.01 0.01 0.01 0.01 0.01 0.01 0.00 0.00 0.00 0.00 0.00 0.00 0.01 0.02 0.03 0.02 0.03 0.04 0.04 0.05
0.00 0.00 0.00 0.00 0.00 0.00 0.00 0.00 0.00 0.00 0.00 0.00 0.02 0.03 0.01 0.00 0.01 0.02 0.01 0.00 0.00 0.00 0.00 0.01 0.01 0.02 0.01 0.01 0.01 0.01 0.01 0.00 0.00 0.00 0.00 0.01 0.02 0.03 0.03 0.02 0.03 0.03 0.04 0.04
0.00 0.00 0.00 0.00 0.02 0.01 0.01 0.00 0.00 0.00 0.00 0.01 0.01 0.01 0.01 0.01 0.02 0.03 0.01 0.01 0.00 0.00 0.00 0.00 0.01 0.01 0.01 0.01 0.01 0.01 0.01 0.01 0.01 0.00 0.01 0.02 0.03 0.04 0.03 0.03 0.02 0.02 0.02 0.02
0.00 0.00 0.00 0.00 0.00 0.00 0.00 0.00 0.00 0.00 0.00 0.01 0.01 0.00 0.02 0.04 0.03 0.05 0.02 0.01 0.00 0.00 0.00 0.00 0.00 0.01 0.01 0.01 0.01 0.01 0.01 0.00 0.01 0.01 0.01 0.03 0.03 0.02 0.02 0.02 0.02 0.01 0.01 0.01
0.00 0.00 0.00 0.00 0.00 0.00 0.00 0.00 0.00 0.00 0.00 0.01 0.01 0.01 0.01 0.03 0.02 0.03 0.01 0.01 0.01 0.00 0.00 0.00 0.00 0.00 0.01 0.00 0.00 0.01 0.01 0.01 0.01 0.02 0.03 0.03 0.02 0.02 0.02 0.01 0.01 0.01 0.01 0.01
0.00 0.00 0.00 0.00 0.00 0.00 0.01 0.01 0.00 0.00 0.00 0.00 0.01 0.01 0.02 0.03 0.03 0.01 0.01 0.00 0.00 0.00 0.00 0.00 0.00 0.00 0.00 0.00 0.01 0.01 0.01 0.02 0.02 0.03 0.04 0.03 0.03 0.03 0.02 0.02 0.02 0.02 0.02 0.02
0.00 0.00 0.00 0.00 0.01 0.02 0.02 0.01 0.00 0.00 0.00 0.00 0.00 0.01 0.01 0.02 0.02 0.01 0.01 0.01 0.01 0.01 0.00 0.00 0.01 0.01 0.01 0.01 0.01 0.02 0.03 0.04 0.04 0.04 0.04 0.05 0.04 0.04 0.04 0.04 0.03 0.04 0.03 0.03
0.00 0.00 0.00 0.00 0.01 0.02 0.03 0.02 0.01 0.00 0.00 0.00 0.00 0.03 0.03 0.02 0.02 0.02 0.02 0.01 0.02 0.02 0.02 0.01 0.01 0.01 0.01 0.01 0.01 0.01 0.02 0.02 0.03 0.04 0.04 0.04 0.04 0.04 0.03 0.03 0.02 0.03 0.04 0.04
0.00 0.00 0.00 0.01 0.02 0.03 0.03 0.01 0.00 0.00 0.01 0.01 0.00 0.01 0.01 0.03 0.05 0.05 0.03 0.02 0.02 0.03 0.04 0.04 0.02 0.01 0.01 0.01 0.01 0.02 0.02 0.02 0.02 0.03 0.03 0.03 0.03 0.03 0.02 0.02 0.03 0.04 0.04 0.04
0.00 0.00 0.01 0.01 0.02 0.02 0.01 0.00 0.00 0.02 0.03 0.01 0.00 0.01 0.02 0.01 0.03 0.04 0.06 0.05 0.03 0.03 0.04 0.04 0.04 0.02 0.02 0.02 0.02 0.03 0.03 0.03 0.03 0.04 0.04 0.04 0.03 0.03 0.03 0.04 0.06 0.07 0.08 0.08
0.00 0.01 0.01 0.01 0.02 0.02 0.01 0.01 0.02 0.02 0.01 0.00 0.01 0.02 0.02 0.02 0.02 0.03 0.03 0.04 0.04 0.04 0.04 0.03 0.04 0.04 0.05 0.04 0.03 0.04 0.04 0.05 0.05 0.05 0.06 0.06 0.05 0.05 0.05 0.07 0.07 0.09 0.11 0.11
0.00 0.00 0.01 0.01 0.03 0.02 0.01 0.01 0.03 0.03 0.02 0.01 0.01 0.01 0.02 0.01 0.01 0.01 0.02 0.03 0.04 0.05 0.05 0.05 0.05 0.05 0.06 0.07 0.06 0.06 0.06 0.07 0.07 0.07 0.07 0.08 0.10 0.12 0.12 0.12 0.09 0.08 0.08 0.08
0.01 0.00 0.00 0.01 0.01 0.03 0.04 0.02 0.03 0.04 0.02 0.01 0.01 0.01 0.01 0.01 0.01 0.02 0.03 0.03 0.04 0.05 0.04 0.04 0.06 0.07 0.08 0.08 0.09 0.09 0.08 0.09 0.09 0.10 0.13 0.15 0.14 0.15 0.17 0.20 0.18 0.11 0.07 0.05
0.01 0.02 0.02 0.03 0.02 0.02 0.02 0.03 0.05 0.04 0.02 0.01 0.01 0.01 0.01 0.01 0.02 0.03 0.04 0.04 0.05 0.05 0.04 0.04 0.06 0.08 0.09 0.09 0.09 0.09 0.08 0.08 0.10 0.11 0.13 0.20 0.19 0.20 0.20 0.19 0.20 0.15 0.10 0.08
0.02 0.05 0.04 0.04 0.04 0.04 0.03 0.03 0.06 0.05 0.02 0.02 0.02 0.02 0.02 0.02 0.03 0.03 0.03 0.04 0.05 0.06 0.05 0.04 0.06 0.07 0.08 0.08 0.08 0.07 0.06 0.06 0.08 0.09 0.11 0.13 0.15 0.17 0.19 0.18 0.18 0.18 0.15 0.13
MSLP
1003.42 1004.06 1004.52 1004.81 1004.98 1005.08 1005.18 1005.32 1005.52 1005.75 1005.98 1006.17 1006.30 1006.37 1006.37 1006.37 1006.42 1006.57 1006.86 1007.30 1007.88 1008.56 1009.27 1009.95 1010.56 1011.07 1011.48 1011.79 1012.03 1012.25 1012.45 1012.65 1012.84 1013.02 1013.15 1013.22 1013.21 1013.13 1012.99 1012.81 1012.63 1012.46 1012.34 1012.27
1004.01 1004.43 1004.64 1004.68 1004.62 1004.57 1004.59 1004.74 1005.03 1005.42 1005.84 1006.21 1006.48 1006.61 1006.61 1006.52 1006.42 1006.39 1006.50 1006.78 1007.25 1007.87 1008.59 1009.33 1010.03 1010.64 1011.13 1011.51 1011.81 1012.05 1012.27 1012.49 1012.72 1012.94 1013.13 1013.27 1013.33 1013.29 1013.17 1012.99 1012.78 1012.57 1012.40 1012.29
1004.36 1004.57 1004.54 1004.36 1004.14 1003.98 1004.00 1004.24 1004.69 1005.29 1005.93 1006.50 1006.91 1007.10 1007.06 1006.85 1006.56 1006.29 1006.16 1006.23 1006.54 1007.07 1007.76 1008.54 1009.32 1010.03 1010.62 1011.09 1011.46 1011.75 1012.01 1012.26 1012.53 1012.81 1013.07 1013.27 1013.40 1013.43 1013.36 1013.20 1012.99 1012.76 1012.56 1012.43
1004.46 1004.47 1004.25 1003.92 1003.60 1003.44 1003.53 1003.92 1004.59 1005.43 1006.31 1007.08 1007.61 1007.83 1007.72 1007.34 1006.81 1006.27 1005.86 1005.68 1005.79 1006.20 1006.85 1007.66 1008.51 1009.32 1010.03 1010.60 1011.05 1011.41 1011.72 1012.02 1012.33 1012.65 1012.97 1013.25 1013.46 1013.56 1013.55 1013.44 1013.25 1013.03 1012.83 1012.68
1004.33 1004.19 1003.84 1003.44 1003.11 1003.01 1003.25 1003.84 1004.75 1005.84 1006.94 1007.88 1008.50 1008.71 1008.50 1007.92 1007.13 1006.30 1005.60 1005.16 1005.08 1005.36 1005.96 1006.78 1007.71 1008.62 1009.45 1010.14 1010.68 1011.11 1011.47 1011.81 1012.16 1012.53 1012.90 1013.24 1013.52 1013.70 1013.76 1013.71 1013.57 1013.38 1013.20 1013.05
1004.06 1003.81 1003.42 1003.01 1002.74 1002.77 1003.18 1003.99 1005.13 1006.44 1007.72 1008.78 1009.44 1009.61 1009.27 1008.50 1007.46 1006.36 1005.40 1004.73 1004.47 1004.63 1005.19 1006.04 1007.04 1008.06 1009.00 1009.79 1010.43 1010.93 1011.34 1011.71 1012.08 1012.47 1012.87 1013.26 1013.60 1013.85 1013.98 1014.00 1013.92 1013.78 1013.62 1013.48
1003.76 1003.46 1003.07 1002.71 1002.56 1002.73 1003.32 1004.32 1005.64 1007.10 1008.49 1009.60 1010.26 1010.36 1009.90 1008.96 1007.72 1006.42 1005.26 1004.42 1004.03 1004.13 1004.66 1005.54 1006.60 1007.71 1008.75 1009.64 1010.35 1010.91 1011.34 1011.72 1012.09 1012.49 1012.90 1013.32 1013.70 1014.00 1014.20 1014.28 1014.26 1014.17 1014.05 1013.93
1003.54 1003.24 1002.89 1002.62 1002.58 1002.88 1003.60 1004.72 1006.14 1007.66 1009.08 1010.18 1010.79 1010.82 1010.26 1009.21 1007.86 1006.44 1005.18 1004.27 1003.83 1003.90 1004.44 1005.35 1006.47 1007.65 1008.75 1009.70 1010.47 1011.05 1011.49 1011.86 1012.21 1012.59 1012.99 1013.40 1013.80 1014.13 1014.38 1014.52 1014.56 1014.52 1014.43 1014.34
1003.48 1003.21 1002.92 1002.74 1002.80 1003.19 1003.97 1005.11 1006.51 1007.99 1009.35 1010.37 1010.91 1010.87 1010.26 1009.19 1007.83 1006.43 1005.19 1004.30 1003.89 1003.99 1004.57 1005.51 1006.66 1007.86 1009.00 1009.97 1010.74 1011.31 1011.74 1012.08 1012.40 1012.73 1013.10 1013.49 1013.88 1014.22 1014.49 1014.67 1014.76 1014.77 1014.72 1014.66
1003.60 1003.39 1003.19 1003.08 1003.19 1003.60 1004.34 1005.41 1006.68 1008.02 1009.22 1010.11 1010.55 1010.48 1009.89 1008.88 1007.64 1006.37 1005.28 1004.52 1004.21 1004.39 1005.01 1005.97 1007.12 1008.31 1009.43 1010.37 1011.11 1011.65 1012.04 1012.34 1012.61 1012.89 1013.22 1013.57 1013.93 1014.27 1014.54 1014.74 1014.86 1014.91 1014.90 1014.87
1003.90 1003.78 1003.64 1003.59 1003.71 1004.06 1004.69 1005.57 1006.62 1007.72 1008.70 1009.42 1009.76 1009.68 1009.18 1008.34 1007.32 1006.30 1005.45 1004.91 1004.77 1005.06 1005.73 1006.68 1007.79 1008.92 1009.96 1010.83 1011.50 1011.99 1012.32 1012.58 1012.80 1013.04 1013.31 1013.62 1013.95 1014.26 1014.53 1014.73 1014.87 1014.94 1014.97 1014.98
1004.32 1004.28 1004.23 1004.21 1004.30 1004.55 1004.98 1005.61 1006.37 1007.16 1007.88 1008.41 1008.67 1008.61 1008.25 1007.65 1006.93 1006.24 1005.71 1005.44 1005.50 1005.90 1006.61 1007.53 1008.55 1009.57 1010.49 1011.26 1011.84 1012.26 1012.55 1012.76 1012.95 1013.16 1013.40 1013.67 1013.96 1014.23 1014.48 1014.67 1014.81 1014.90 1014.95 1014.99
1004.78 1004.85 1004.88 1004.88 1004.92 1005.03 1005.25 1005.58 1006.01 1006.47 1006.91 1007.24 1007.42 1007.41 1007.23 1006.91 1006.54 1006.22 1006.03 1006.05 1006.31 1006.83 1007.55 1008.40 1009.31 1010.19 1010.97 1011.61 1012.09 1012.45 1012.70 1012.89 1013.07 1013.26 1013.48 1013.72 1013.98 1014.22 1014.43 1014.60 1014.72 1014.81 1014.89 1014.96
1005.22 1005.41 1005.52 1005.55 1005.53 1005.50 1005.49 1005.53 1005.63 1005.77 1005.94 1006.09 1006.20 1006.25 1006.25 1006.22 1006.20 1006.25 1006.40 1006.69 1007.14 1007.74 1008.45 1009.21 1009.98 1010.70 1011.33 1011.85 1012.25 1012.55 1012.79 1012.99 1013.18 1013.39 1013.60 1013.83 1014.05 1014.24 1014.41 1014.54 1014.64 1014.72 1014.80 1014.88
1005.60 1005.91 1006.10 1006.16 1006.11 1005.96 1005.75 1005.52 1005.32 1005.17 1005.09 1005.08 1005.14 1005.25 1005.43 1005.66 1005.96 1006.34 1006.78 1007.31 1007.91 1008.56 1009.23 1009.90 1010.53 1011.09 1011.58 1011.99 1012.33 1012.62 1012.87 1013.10 1013.33 1013.56 1013.79 1014.00 1014.19 1014.34 1014.45 1014.53 1014.59 1014.64 1014.70 1014.78
1005.91 1006.31 1006.59 1006.69 1006.61 1006.37 1006.01 1005.57 1005.13 1004.74 1004.46 1004.32 1004.33 1004.50 1004.82 1005.27 1005.83 1006.47 1007.16 1007.86 1008.57 1009.24 1009.87 1010.44 1010.94 1011.38 1011.76 1012.09 1012.40 1012.70 1012.98 1013.27 1013.55 1013.82 1014.06 1014.25 1014.40 1014.50 1014.55 1014.56 1014.56 1014.56 1014.59 1014.66
1006.15 1006.63 1006.96 1007.10 1007.02 1006.73 1006.26 1005.67 1005.06 1004.50 1004.07 1003.82 1003.80 1004.01 1004.44 1005.06 1005.81 1006.64 1007.49 1008.32 1009.09 1009.77 1010.35 1010.83 1011.24 1011.58 1011.90 1012.20 1012.51 1012.84 1013.18 1013.53 1013.86 1014.16 1014.41 1014.58 1014.68 1014.71 1014.67 1014.61 1014.54 1014.48 1014.47 1014.51
1006.34 1006.84 1007.20 1007.37 1007.30 1006.98 1006.45 1005.79 1005.07 1004.41 1003.89 1003.58 1003.54 1003.78 1004.28 1005.00 1005.87 1006.82 1007.78 1008.68 1009.48 1010.15 1010.70 1011.13 1011.47 1011.77 1012.07 1012.37 1012.71 1013.09 1013.49 1013.90 1014.27 1014.59 1014.82 1014.95 1014.98 1014.93 1014.80 1014.65 1014.50 1014.38 1014.32 1014.33
1006.48 1006.96 1007.32 1007.48 1007.41 1007.09 1006.55 1005.86 1005.12 1004.42 1003.86 1003.54 1003.50 1003.76 1004.30 1005.08 1006.01 1007.02 1008.03 1008.96 1009.77 1010.44 1010.96 1011.37 1011.70 1011.99 1012.30 1012.64 1013.02 1013.45 1013.91 1014.35 1014.74 1015.04 1015.24 1015.31 1015.26 1015.11 1014.90 1014.66 1014.44 1014.27 1014.16 1014.14
1006.59 1006.99 1007.30 1007.44 1007.36 1007.05 1006.53 1005.86 1005.14 1004.46 1003.93 1003.63 1003.61 1003.89 1004.45 1005.26 1006.22 1007.24 1008.26 1009.20 1010.01 1010.67 1011.19 1011.60 1011.95 1012.27 1012.61 1013.00 1013.43 1013.90 1014.39 1014.84 1015.21 1015.48 1015.62 1015.61 1015.48 1015.24 1014.94 1014.63 1014.35 1014.14 1014.01 1013.97
1006.66 1006.94 1007.16 1007.24 1007.14 1006.84 1006.37 1005.76 1005.11 1004.50 1004.04 1003.80 1003.82 1004.13 1004.72 1005.53 1006.48 1007.50 1008.50 1009.42 1010.23 1010.89 1011.42 1011.86 1012.24 1012.61 1012.99 1013.42 1013.89 1014.39 1014.87 1015.30 1015.64 1015.85 1015.91 1015.82 1015.60 1015.29 1014.93 1014.57 1014.25 1014.02 1013.89 1013.86
1006.68 1006.81 1006.92 1006.92 1006.80 1006.51 1006.09 1005.57 1005.03 1004.53 1004.18 1004.02 1004.11 1004.47 1005.07 1005.87 1006.80 1007.79 1008.77 1009.67 1010.46 1011.13 1011.68 1012.15 1012.57 1012.99 1013.41 1013.88 1014.36 1014.85 1015.31 1015.69 1015.97 1016.10 1016.08 1015.91 1015.63 1015.26 1014.86 1014.48 1014.16 1013.94 1013.83 1013.82
1006.64 1006.62 1006.60 1006.53 1006.37 1006.11 1005.75 1005.34 1004.92 1004.56 1004.33 1004.29 1004.46 1004.87 1005.49 1006.28 1007.18 1008.13 1009.07 1009.94 1010.72 1011.39 1011.96 1012.46 1012.92 1013.37 1013.83 1014.30 1014.78 1015.24 1015.64 1015.96 1016.15 1016.21 1016.11 1015.89 1015.56 1015.16 1014.76 1014.40 1014.11 1013.93 1013.85 1013.89
1006.55 1006.39 1006.26 1006.11 1005.92 1005.68 1005.40 1005.10 1004.82 1004.61 1004.52 1004.60 1004.86 1005.32 1005.96 1006.74 1007.61 1008.52 1009.41 1010.24 1011.00 1011.66 1012.25 1012.77 1013.25 1013.72 1014.18 1014.64 1015.09 1015.50 1015.84 1016.08 1016.20 1016.18 1016.03 1015.76 1015.42 1015.03 1014.66 1014.33 1014.10 1013.97 1013.96 1014.04
1006.41 1006.14 1005.91 1005.71 1005.51 1005.31 1005.10 1004.91 1004.77 1004.70 1004.75 1004.95 1005.30 1005.81 1006.46 1007.22 1008.06 1008.92 1009.76 1010.55 1011.28 1011.93 1012.51 1013.04 1013.53 1014.00 1014.45 1014.88 1015.28 1015.62 1015.89 1016.06 1016.11 1016.03 1015.85 1015.57 1015.23 1014.88 1014.56 1014.30 1014.13 1014.07 1014.11 1014.24
1006.22 1005.88 1005.60 1005.37 1005.17 1005.00 1004.88 1004.80 1004.78 1004.85 1005.02 1005.32 1005.74 1006.29 1006.95 1007.70 1008.49 1009.30 1010.09 1010.84 1011.53 1012.16 1012.73 1013.25 1013.73 1014.18 1014.60 1014.99 1015.34 1015.62 1015.81 1015.91 1015.91 1015.80 1015.60 1015.34 1015.04 1014.74 1014.48 1014.30 1014.20 1014.20 1014.28 1014.43
Thickness
5856 5842 5834 5844 5854 5853 5847 5841 5844 5853 5871 5861 5850 5841 5847 5856 5852 5844 5836 5831 5825 5821 5822 5820 5816 5812 5806 5800 5795 5791 5788 5786 5784 5781 5778 5776 5774 5776 5776 5776 5774 5773 5772 5771
5838 5832 5851 5864 5865 5860 5852 5845 5847 5859 5872 5861 5849 5844 5853 5858 5853 5850 5842 5835 5830 5825 5822 5819 5816 5813 5807 5801 5797 5793 5789 5787 5785 5783 5782 5780 5778 5777 5777 5777 5775 5774 5773 5772
5832 5846 5864 5859 5856 5853 5851 5850 5850 5852 5861 5863 5847 5833 5841 5850 5857 5855 5852 5846 5839 5831 5824 5820 5817 5814 5810 5804 5800 5796 5792 5790 5788 5787 5784 5782 5779 5777 5776 5775 5774 5775 5774 5773
5843 5858 5858 5852 5851 5854 5842 5863 5862 5854 5843 5833 5840 5812 5831 5839 5845 5849 5848 5846 5841 5838 5832 5825 5820 5816 5813 5809 5805 5801 5796 5793 5790 5789 5786 5781 5776 5773 5774 5775 5775 5775 5774 5773
5838 5853 5850 5846 5855 5860 5854 5867 5859 5853 5843 5831 5836 5820 5823 5839 5833 5841 5846 5845 5843 5843 5838 5830 5826 5821 5819 5816 5810 5804 5798 5794 5793 5791 5788 5784 5780 5778 5778 5777 5776 5774 5774 5773
5846 5863 5862 5857 5867 5869 5865 5859 5853 5848 5837 5809 5822 5817 5816 5833 5837 5843 5848 5847 5846 5845 5842 5836 5832 5827 5823 5820 5814 5808 5801 5796 5794 5792 5790 5786 5783 5781 5778 5776 5774 5773 5773 5773
5831 5847 5862 5867 5851 5858 5855 5832 5810 5801 5799 5802 5830 5819 5824 5848 5855 5853 5850 5850 5849 5848 5843 5837 5832 5827 5823 5820 5816 5811 5803 5798 5796 5793 5791 5788 5786 5783 5780 5777 5776 5774 5774 5772
5815 5820 5847 5857 5849 5841 5844 5836 5806 5783 5785 5805 5823 5813 5831 5858 5863 5863 5859 5854 5852 5849 5846 5839 5835 5831 5826 5822 5818 5813 5806 5800 5797 5794 5792 5790 5788 5785 5783 5781 5780 5777 5776 5775
5818 5822 5854 5861 5862 5852 5837 5835 5845 5822 5809 5796 5802 5818 5833 5851 5854 5855 5854 5852 5850 5849 5847 5843 5839 5834 5828 5824 5820 5815 5808 5802 5799 5796 5793 5790 5788 5786 5784 5783 5781 5779 5778 5777
5829 5815 5840 5856 5855 5851 5848 5843 5833 5815 5788 5778 5788 5798 5810 5829 5836 5844 5846 5846 5846 5846 5845 5842 5839 5835 5831 5826 5822 5817 5811 5805 5801 5798 5795 5791 5789 5786 5785 5783 5780 5778 5777 5776
5832 5811 5821 5835 5828 5827 5835 5832 5826 5820 5812 5786 5775 5796 5838 5837 5839 5839 5844 5845 5841 5844 5841 5840 5836 5835 5831 5826 5821 5816 5811 5806 5801 5798 5795 5792 5789 5786 5784 5781 5780 5778 5776 5774
5821 5811 5803 5819 5844 5849 5841 5836 5828 5807 5800 5804 5790 5795 5845 5845 5843 5840 5839 5841 5842 5840 5840 5837 5834 5832 5828 5824 5819 5815 5811 5806 5802 5799 5795 5791 5788 5785 5782 5780 5779 5777 5774 5772
5808 5796 5782 5791 5812 5830 5827 5831 5834 5831 5820 5804 5790 5794 5842 5846 5845 5843 5839 5838 5838 5835 5835 5834 5832 5827 5823 5820 5817 5814 5811 5807 5803 5799 5794 5790 5786 5783 5780 5778 5777 5775 5772 5770
5805 5789 5781 5774 5789 5808 5809 5817 5826 5821 5807 5804 5805 5805 5823 5828 5831 5833 5833 5833 5832 5830 5829 5828 5825 5822 5819 5816 5813 5811 5808 5807 5803 5798 5793 5788 5784 5781 5779 5777 5774 5771 5769 5766
5797 5780 5785 5792 5804 5807 5809 5812 5815 5812 5813 5807 5809 5808 5813 5818 5819 5823 5826 5825 5823 5819 5819 5818 5817 5815 5813 5810 5808 5806 5804 5803 5800 5795 5790 5786 5783 5780 5777 5774 5771 5768 5765 5764
5787 5775 5777 5778 5792 5797 5797 5804 5810 5809 5812 5811 5810 5803 5815 5819 5817 5815 5816 5816 5812 5810 5810 5810 5810 5808 5806 5805 5803 5801 5799 5797 5795 5790 5786 5783 5780 5776 5773 5770 5768 5765 5762 5760
5773 5766 5761 5761 5776 5779 5773 5790 5799 5803 5810 5807 5794 5796 5806 5803 5803 5806 5808 5807 5804 5803 5803 5801 5801 5800 5800 5800 5799 5796 5794 5792 5788 5783 5781 5778 5775 5772 5768 5767 5763 5760 5758 5757
5762 5757 5755 5753 5754 5738 5770 5800 5801 5799 5802 5806 5801 5799 5799 5797 5800 5806 5805 5800 5796 5795 5795 5795 5795 5794 5795 5795 5794 5791 5789 5786 5782 5778 5775 5772 5769 5766 5764 5761 5758 5756 5754 5752
5767 5753 5746 5744 5739 5747 5771 5785 5790 5781 5780 5793 5790 5789 5790 5793 5792 5792 5796 5794 5791 5790 5789 5789 5790 5789 5787 5786 5786 5783 5781 5778 5775 5772 5769 5767 5765 5761 5758 5755 5754 5752 5750 5747
5761 5755 5742 5738 5729 5730 5753 5781 5793 5780 5761 5781 5783 5778 5779 5778 5764 5769 5783 5785 5783 5781 5781 5780 5781 5781 5778 5777 5777 5773 5771 5769 5766 5765 5764 5763 5760 5756 5753 5751 5749 5747 5744 5741
5738 5737 5733 5731 5729 5736 5759 5777 5779 5747 5745 5772 5776 5772 5769 5766 5763 5767 5772 5772 5771 5770 5770 5771 5770 5767 5767 5768 5766 5761 5760 5759 5760 5759 5757 5755 5753 5751 5748 5745 5743 5740 5737 5734
5729 5727 5726 5726 5720 5723 5757 5760 5746 5744 5760 5765 5766 5765 5761 5761 5762 5761 5759 5757 5758 5757 5758 5760 5758 5756 5757 5756 5753 5750 5749 5750 5751 5749 5747 5745 5744 5743 5741 5737 5734 5732 5728 5725
5728 5729 5727 5723 5722 5736 5747 5745 5748 5753 5751 5754 5755 5755 5754 5750 5748 5747 5746 5745 5746 5746 5747 5747 5746 5745 5745 5746 5743 5739 5739 5740 5739 5737 5735 5734 5733 5731 5730 5727 5724 5722 5719 5717
5727 5735 5728 5722 5726 5733 5736 5740 5743 5744 5743 5746 5747 5747 5745 5738 5737 5736 5735 5735 5735 5736 5735 5735 5734 5733 5732 5734 5733 5731 5730 5730 5728 5726 5724 5723 5722 5720 5719 5717 5714 5711 5708 5706
5715 5719 5717 5712 5717 5721 5723 5727 5729 5732 5737 5738 5738 5737 5734 5731 5728 5726 5724 5723 5724 5724 5724 5723 5721 5720 5721 5721 5721 5721 5721 5720 5717 5715 5714 5713 5712 5711 5709 5707 5703 5702 5699 5696
5711 5707 5703 5701 5710 5709 5709 5719 5723 5722 5725 5728 5727 5724 5724 5722 5718 5716 5713 5712 5712 5712 5712 5711 5711 5710 5710 5710 5710 5711 5711 5710 5707 5705 5705 5705 5704 5702 5701 5698 5693 5690 5689 5686